Weather History for Olive Branch, MS

Change the Weather History Date:

Wednesday, January 9, 2013

  Actual Average (KMEM) Record (KMEM)
Temperature  
Mean Temperature 52 °F 41 °F  
Max Temperature 53 °F 49 °F 74 °F (1949)
Min Temperature 50 °F 32 °F -8 °F (1886)
Degree Days  
Heating Degree Days 14 24  
Month to date heating degree days 216  
Since 1 July heating degree days 1380  
Cooling Degree Days 0 0  
Month to date cooling degree days 0  
Year to date cooling degree days 0  
Growing Degree Days 2 (Base 50)    
Moisture  
Dew Point 51 °F    
Average Humidity 95    
Maximum Humidity 100    
Minimum Humidity 77    
Precipitation  
Precipitation 0.58 in 0.12 in 3.48 in (1965)
Month to date precipitation 1.23  
Year to date precipitation 1.23  
Snow  
Snow 0.00 in 0.10 in 6.80 in (1905)
Month to date snowfall 0.5  
Since 1 July snowfall 0.7  
Snow Depth -    
Sea Level Pressure  
Sea Level Pressure 30.27 in    
Wind  
Wind Speed 7 mph (ESE)    
Max Wind Speed 10 mph    
Max Gust Speed -    
Visibility 5 miles    
Events Rain    
T = Trace of Precipitation, MM = Missing Value Source: NWS Daily Summary

Daily Weather History Graph

Daily Weather History Graph

Search for Another Location

Airport:

Trip Planner

Search our weather history database for the weather conditions in past years. The results will help you decide how hot, cold, wet, or windy it might be!

Date:

Astronomy

Jan. 09, 2013 Rise Set
Actual Time 7:07 AM CST 5:05 PM CST
Civil Twilight 6:39 AM CST 5:33 PM CST
Nautical Twilight 6:08 AM CST 6:04 PM CST
Astronomical Twilight 5:37 AM CST 6:35 PM CST
Moon 4:46 AM CST (1/9) 3:07 PM CST (1/9)
Length of Visible Light 10h 53m
Length of Day
9h 57m
Waning Crescent, 6% of the Moon is Illuminated
Jan 9
Waning Crescent
Jan 11
New
Jan 18
First Quarter
Jan 26
Full
Feb 3
Last Quarter

Hourly Weather History & Observations

Time (CST) Temp. Dew Point Humidity Pressure Visibility Wind Dir Wind Speed Gust Speed Precip Events Conditions
12:15 AM 53.6 °F 46.4 °F 77% 30.22 in 9.0 mi SSE 9.2 mph - 0.00 in   Mostly Cloudy
12:35 AM 53.6 °F 46.4 °F 77% 30.23 in 9.0 mi South 6.9 mph - 0.00 in   Mostly Cloudy
12:55 AM 53.6 °F 46.4 °F 77% 30.22 in 10.0 mi SSE 8.1 mph - 0.00 in   Overcast
1:15 AM 53.6 °F 46.4 °F 77% 30.23 in 10.0 mi SSE 8.1 mph - 0.00 in   Overcast
1:35 AM 53.6 °F 48.2 °F 82% 30.23 in 10.0 mi SSE 9.2 mph - 0.00 in   Overcast
1:55 AM 53.6 °F 48.2 °F 82% 30.23 in 9.0 mi SSE 6.9 mph - N/A   Overcast
2:15 AM 51.8 °F 51.8 °F 100% 30.24 in 5.0 mi SSE 9.2 mph - 0.00 in   Overcast
2:35 AM 51.8 °F 51.8 °F 100% 30.24 in 4.0 mi SE 6.9 mph - 0.02 in   Overcast
2:55 AM 51.8 °F 51.8 °F 100% 30.23 in 5.0 mi SE 5.8 mph - 0.03 in   Overcast
3:15 AM 50.0 °F 50.0 °F 100% 30.23 in 5.0 mi SE 4.6 mph - 0.01 in   Overcast
3:35 AM 51.8 °F 51.8 °F 100% 30.23 in 5.0 mi SE 4.6 mph - 0.02 in   Overcast
3:55 AM 51.8 °F 51.8 °F 100% 30.24 in 4.0 mi SE 5.8 mph - 0.04 in   Overcast
4:15 AM 51.8 °F 51.8 °F 100% 30.24 in 4.0 mi SSE 3.5 mph - 0.01 in   Overcast
4:35 AM 51.8 °F 51.8 °F 100% 30.25 in 4.0 mi SSE 8.1 mph - 0.03 in   Overcast
4:55 AM 51.8 °F 51.8 °F 100% 30.24 in 4.0 mi SSE 6.9 mph - 0.06 in   Overcast
5:15 AM 51.8 °F 51.8 °F 100% 30.24 in 4.0 mi SSE 5.8 mph - 0.01 in   Overcast
5:35 AM 51.8 °F 51.8 °F 100% 30.25 in 5.0 mi SSE 5.8 mph - 0.02 in   Overcast
5:55 AM 51.8 °F 51.8 °F 100% 30.26 in 6.0 mi SE 3.5 mph - 0.02 in   Overcast
6:50 AM 51.8 °F 51.8 °F 100% 30.29 in 5.0 mi Calm Calm - N/A Rain Light Rain
7:50 AM 51.8 °F 51.8 °F 100% 30.33 in 2.0 mi Calm Calm - N/A   Overcast
8:50 AM 51.8 °F 51.8 °F 100% 30.34 in 2.0 mi NE 5.8 mph - N/A   Overcast
9:50 AM 51.8 °F 51.8 °F 100% 30.35 in 3.0 mi ENE 8.1 mph - N/A   Overcast
12:50 PM 51.8 °F 51.8 °F 100% 30.31 in 5.0 mi East 5.8 mph - N/A Rain Light Rain
1:50 PM 53.6 °F 53.6 °F 100% 30.28 in 7.0 mi East 5.8 mph - N/A   Overcast
2:50 PM 53.6 °F 53.6 °F 100% 30.28 in 6.0 mi NE 8.1 mph - N/A   Overcast
3:50 PM 53.6 °F 53.6 °F 100% 30.29 in 6.0 mi NNE 8.1 mph - N/A   Overcast
8:15 PM 53.6 °F - N/A% 30.30 in 5.0 mi ENE 8.1 mph - 0.01 in   Overcast
8:35 PM 53.6 °F - N/A% 30.30 in 3.0 mi NE 8.1 mph - 0.03 in   Overcast
8:55 PM 53.6 °F - N/A% 30.30 in 3.0 mi ENE 6.9 mph - 0.09 in   Overcast
9:15 PM 53.6 °F - N/A% 30.30 in 3.0 mi ENE 8.1 mph - 0.05 in   Overcast
9:35 PM 53.6 °F - N/A% 30.30 in 3.0 mi ENE 6.9 mph - 0.09 in   Overcast
9:55 PM 53.6 °F - N/A% 30.31 in 4.0 mi ENE 5.8 mph - 0.12 in   Overcast
10:15 PM 53.6 °F - N/A% 30.31 in 2.5 mi East 6.9 mph - 0.06 in   Overcast
10:35 PM 53.6 °F - N/A% 30.32 in 3.0 mi ENE 5.8 mph - 0.15 in   Overcast
10:55 PM 53.6 °F - N/A% 30.31 in 5.0 mi NE 10.4 mph - 0.16 in   Overcast
11:15 PM 53.6 °F - N/A% 30.30 in 6.0 mi ENE 8.1 mph - 0.01 in   Overcast
11:35 PM 53.6 °F - N/A% 30.30 in 5.0 mi NE 8.1 mph - 0.02 in   Overcast
11:55 PM 53.6 °F - N/A% 30.29 in 4.0 mi ENE 8.1 mph - 0.06 in   Overcast